This demonstration page uses our WeatherBlox Daily Observations layout. Learn more.

40.92945, -100.16068

Hourly Observations for February 12, 2019

Temp ( °F °C ) Dew Point ( °F °C ) Humidity (%) Winds ( mph kmh ) Pressure ( in mb ) Visibility ( mi km ) Precip ( " mm )
12:15 am 00:15 Clear 21 -6.3 17 -8.4 85 85 WNW 8 13 30.13 1020 10 16.0934 0 0
12:35 am 00:35 Clear 20 -6.6 16 -8.8 85 85 WNW 8 13 30.13 1020 10 16.0934 0 0
12:55 am 00:55 Clear 19 -7 16 -9.1 85 85 WNW 9 15 30.14 1021 10 16.0934 0 0
1:15 am 01:15 Clear 19 -7.2 15 -9.5 84 84 WNW 9 15 30.14 1021 10 16.0934 0 0
1:35 am 01:35 Clear 19 -7.5 15 -9.6 85 85 WNW 9 15 30.15 1021 10 16.0934 0 0
1:55 am 01:55 Clear 18 -7.7 14 -9.9 84 84 WNW 9 15 30.16 1021 10 16.0934 0 0
2:15 am 02:15 Clear 18 -7.8 14 -10 84 84 WNW 9 15 30.16 1021 10 16.0934 0 0
2:35 am 02:35 Clear 18 -8 14 -10.2 84 84 WNW 8 13 30.17 1022 10 16.0934 0 0
2:55 am 02:55 Clear 18 -8 14 -10.2 84 84 WNW 9 15 30.17 1022 10 16.0934 0 0
3:15 am 03:15 Clear 18 -8 13 -10.3 84 84 NW 9 15 30.18 1022 10 16.0934 0 0
3:35 am 03:35 Clear 17 -8.1 13 -10.5 83 83 WNW 9 15 30.18 1022 10 16.0934 0 0
3:55 am 03:55 Clear 16 -8.7 12 -11 84 84 WNW 9 15 30.19 1022 10 16.0934 0 0
4:15 am 04:15 Clear 15 -9.2 11 -11.4 84 84 WNW 8 13 30.19 1022 10 16.0934 0 0
4:35 am 04:35 Clear 15 -9.5 11 -11.6 85 85 NW 6 9 30.22 1023 10 16.0934 0 0
4:55 am 04:55 Clear 14 -9.8 11 -11.8 86 86 WNW 7 11 30.23 1024 10 16.0934 0 0
5:15 am 05:15 Clear 15 -9.2 11 -11.5 84 84 WNW 7 11 30.22 1023 10 16.0934 0 0
5:35 am 05:35 Clear 14 -9.8 10 -12 84 84 WNW 6 9 30.23 1024 10 16.0934 0 0
5:55 am 05:55 Clear 13 -10.3 10 -12.5 84 84 NW 6 9 30.24 1024 10 16.0934 0 0
6:15 am 06:15 Clear 14 -10 10 -12.1 85 85 WNW 6 9 30.24 1024 10 16.0934 0 0
6:35 am 06:35 Clear 13 -10.5 9 -12.6 85 85 WNW 6 9 30.25 1024 10 16.0934 0 0
6:55 am 06:55 Clear 14 -10.2 10 -12.5 83 83 WNW 7 11 30.24 1024 10 16.0934 0 0
7:15 am 07:15 Clear 14 -9.8 10 -12.2 83 83 WNW 7 11 30.25 1024 10 16.0934 0 0
7:35 am 07:35 Clear 14 -10 10 -12.5 82 82 WNW 5 7 30.26 1025 10 16.0934 0 0
7:55 am 07:55 Sunny 13 -10.3 9 -12.6 83 83 WNW 3 6 30.26 1025 10 16.0934 0 0
8:15 am 08:15 Sunny 14 -9.9 10 -12.1 84 84 Calm 30.27 1025 10 16.0934 0 0
8:35 am 08:35 Sunny 16 -8.9 12 -11.3 83 83 Calm 30.27 1025 10 16.0934 0 0
8:55 am 08:55 Sunny 19 -7.1 14 -9.9 81 81 NW 5 7 30.26 1025 10 16.0934 0 0
9:15 am 09:15 Sunny 21 -6 16 -9.1 79 79 NW 6 9 30.25 1024 10 16.0934 0 0
9:35 am 09:35 Sunny 24 -4.6 18 -7.7 79 79 WNW 8 13 30.25 1025 10 16.0934 0 0
9:55 am 09:55 Sunny 24 -4.2 19 -7.5 78 78 WNW 7 11 30.26 1025 10 16.0934 0 0
10:15 am 10:15 Sunny 26 -3.2 20 -6.6 78 78 NW 10 17 30.26 1025 10 16.0934 0 0
10:35 am 10:35 Sunny 27 -2.6 21 -6.1 77 77 NW 8 13 30.25 1025 10 16.0934 0 0
10:55 am 10:55 Sunny 28 -2 22 -5.7 76 76 NW 7 11 30.24 1024 10 16.0934 0 0
11:15 am 11:15 Sunny 29 -1.5 22 -5.5 74 74 N 7 11 30.24 1024 10 16.0934 0 0
11:35 am 11:35 Sunny 30 -1.1 22 -5.4 73 73 NNW 10 17 30.24 1024 10 16.0934 0 0
11:55 am 11:55 Sunny 30 -1 23 -5.2 73 73 NW 8 13 30.24 1024 10 16.0934 0 0
12:15 pm 12:15 Sunny 31 -0.5 23 -5.1 71 71 WNW 6 9 30.23 1024 10 16.0934 0 0
12:35 pm 12:35 Sunny 32 0 24 -4.6 71 71 WNW 7 11 30.22 1023 10 16.0934 0 0
12:55 pm 12:55 Sunny 33 0.3 25 -3.8 74 74 NW 9 15 30.21 1023 10 16.0934 0 0
1:15 pm 13:15 Sunny 33 0.4 24 -4.3 71 71 NW 8 13 30.2 1023 10 16.0934 0 0
1:35 pm 13:35 Sunny 33 0.6 24 -4.4 70 70 NW 8 13 30.2 1023 10 16.0934 0 0
1:55 pm 13:55 Sunny 35 1.5 25 -3.8 68 68 NNW 6 9 30.18 1022 10 16.0934 0 0
2:15 pm 14:15 Sunny 36 2.1 25 -3.9 65 65 NW 6 9 30.18 1022 10 16.0934 0 0
2:35 pm 14:35 Sunny 37 2.5 25 -4 63 63 W 3 6 30.17 1022 10 16.0934 0 0
2:55 pm 14:55 Sunny 37 2.7 25 -4 62 62 W 3 6 30.17 1022 10 16.0934 0 0
3:15 pm 15:15 Sunny 38 3.5 25 -3.8 59 59 W 3 6 30.15 1021 10 16.0934 0 0
3:35 pm 15:35 Sunny 39 4 25 -3.8 57 57 NNW 3 6 30.14 1021 10 16.0934 0 0
3:55 pm 15:55 Sunny 40 4.5 25 -3.9 55 55 SSW 6 9 30.14 1021 10 16.0934 0 0
4:15 pm 16:15 Sunny 40 4.7 25 -4 54 54 Calm 30.13 1020 10 16.0934 0 0
4:35 pm 16:35 Sunny 42 5.3 25 -3.8 52 52 S 5 7 30.13 1020 10 16.0934 0 0
4:55 pm 16:55 Sunny 42 5.3 24 -4.3 50 50 Calm 30.12 1020 10 16.0934 0 0
5:15 pm 17:15 Sunny 40 4.7 25 -3.8 54 54 SE 5 7 30.11 1020 10 16.0934 0 0
5:35 pm 17:35 Sunny 39 3.8 26 -3.5 59 59 SSE 5 7 30.12 1020 10 16.0934 0 0
6:15 pm 18:15 Clear 37 2.6 25 -4.1 62 62 SE 5 7 30.13 1020 10 16.0934 0 0
6:35 pm 18:35 Clear 35 1.4 24 -4.4 66 66 SE 5 7 30.15 1021 10 16.0934 0 0
6:55 pm 18:55 Clear 33 0.3 24 -4.6 70 70 SE 3 6 30.16 1021 10 16.0934 0 0
7:15 pm 19:15 Clear 33 0.3 24 -4.4 71 71 SE 5 7 30.16 1021 10 16.0934 0 0
7:35 pm 19:35 Clear 30 -1.2 24 -4.5 79 79 Calm 30.17 1022 10 16.0934 0 0
7:55 pm 19:55 Clear 32 -0.1 24 -4.2 74 74 E 5 7 30.16 1021 10 16.0934 0 0
8:15 pm 20:15 Clear 29 -1.6 23 -5 78 78 SE 5 7 30.18 1022 10 16.0934 0 0
8:35 pm 20:35 Clear 28 -2.4 22 -5.3 81 81 ESE 3 6 30.19 1022 10 16.0934 0 0
8:55 pm 20:55 Clear 28 -2 23 -5.1 80 80 SSE 5 7 30.19 1022 10 16.0934 0 0
9:15 pm 21:15 Clear 29 -1.4 23 -5.1 76 76 Calm 30.18 1022 10 16.0934 0 0
9:35 pm 21:35 Clear 27 -2.6 22 -5.6 80 80 E 3 6 30.19 1022 10 16.0934 0 0
9:55 pm 21:55 Clear 26 -3.4 22 -5.5 86 86 Calm 30.2 1023 10 16.0934 0 0
10:15 pm 22:15 Clear 26 -3.6 22 -5.6 86 86 E 3 6 30.2 1023 10 16.0934 0 0
10:35 pm 22:35 Clear 26 -3.6 22 -5.4 88 88 SE 3 6 30.2 1023 10 16.0934 0 0
10:55 pm 22:55 Clear 26 -3.4 22 -5.4 86 86 ENE 5 7 30.19 1022 10 16.0934 0 0
11:15 pm 23:15 Clear 26 -3.5 22 -5.3 88 88 Calm 30.19 1022 10 16.0934 0 0
11:35 pm 23:35 Clear 27 -2.7 23 -5 84 84 SE 5 7 30.17 1022 10 16.0934 0 0
11:55 pm 23:55 Clear 27 -2.6 23 -5.1 83 83 Calm 30.16 1021 10 16.0934 0 0

Powered by AerisWeather